Regional Weather Roundup
Issued by NWS

Home | Current Version | Previous Version | Text Only | Print | Product List | Glossary On
Versions: 1 2 3 4 5 6 7 8 9 10 11 12 13 14 15 16 17 18 19 20 21 22 23 24 25 26 27 28 29 30 31 32 33 34 35 36 37 38 39 40 41 42 43 44 45 46 47 48 49 50
000
ASUS43 KLMK 262310
RWRKY
KENTUCKY REGIONAL WEATHER ROUNDUP
NATIONAL WEATHER SERVICE LOUISVILLE KY
700 PM EDT SAT MAY 26 2018

NOTE "FAIR" INDICATES FEW OR NO CLOUDS BELOW 12,000 FEET
WITH NO SIGNIFICANT WEATHER AND/OR OBSTRUCTIONS TO VISIBILITY.

KYZ001>023-026-027-061>063-070>075-270000-
WESTERN AND SOUTH CENTRAL KENTUCKY

CITY           SKY/WX    TMP DP  RH WIND       PRES   REMARKS
PADUCAH        FAIR      84  70  62 CALM      29.79F
HENDERSON      FAIR      86  69  56 SW9       29.79S HX  90
OWENSBORO      FAIR      86  69  56 SW8       29.79F HX  90
HOPKINSVILLE   FAIR      81  71  72 S7        29.82F
BOWLING GREEN  FAIR      80  70  71 SW7       29.83F
GLASGOW        FAIR      79  69  72 SW5       29.85S
$$

KYZ024-025-028>034-038-045-046-053-270000-
NORTH CENTRAL KENTUCKY

CITY           SKY/WX    TMP DP  RH WIND       PRES   REMARKS
LOUISVILLE/SDF PTSUNNY   85  67  54 W9        29.79F
LOUISVILLE/LOU PTSUNNY   86  69  56 SW10      29.80F HX  90
FORT KNOX      FAIR      83  69  61 SW6       29.82F
$$

KYZ035>037-039>044-047>052-055>060-089>105-270000-
NORTHEAST KENTUCKY

CITY           SKY/WX    TMP DP  RH WIND       PRES   REMARKS
LEXINGTON      LGT RAIN  80  70  71 W7        29.83F
COVINGTON      PTSUNNY   77  67  71 S6        29.80F
FRANKFORT      FAIR      81  66  60 SW9       29.81F
$$

KYZ054-064>069-076>088-106>120-270000-
SOUTHEAST KENTUCKY

CITY           SKY/WX    TMP DP  RH WIND       PRES   REMARKS
JACKSON        FAIR      76  70  82 CALM      29.89R
LONDON         LGT RAIN  73  70  90 CALM      29.88F
SOMERSET       PTSUNNY   73  66  78 MISG      29.89R
MIDDLESBORO    RAIN      69  69  99 CALM      29.92F
MONTICELLO     MOCLDY    79  66  64 NW5       29.89R
$$





USA.gov is the U.S. government's official web portal to all federal, state and local government web resources and services.